| time (UTC) | temp F | wind direction | speed MPH | gust MPH | rain 1hr in | rain 24hr in | rain mn in | humidity % | barometer mb |
| 20260506212506 | 59 | 2 | 4.0 | 7.0 | 0.00 | 0.00 | 0.00 | 99 | 1001.1 |
| 20260506212001 | 59 | 169 | 0.0 | 2.0 | 0.00 | 0.00 | 0.00 | 99 | 1000.7 |
| 20260506211457 | 59 | 173 | 0.0 | 2.0 | 0.00 | 0.00 | 0.00 | 99 | 1000.7 |
| 20260506210954 | 59 | 241 | 1.0 | 3.0 | 0.00 | 0.00 | 0.00 | 99 | 1000.7 |
| 20260506210450 | 59 | 303 | 1.0 | 4.0 | 0.00 | 0.00 | 0.00 | 99 | 1000.7 |
| 20260506205948 | 59 | 165 | 1.0 | 4.0 | 0.00 | 0.00 | 0.00 | 99 | 1000.7 |
| 20260506205444 | 58 | 164 | 0.0 | 2.0 | 0.00 | 0.00 | 0.00 | 99 | 1001.1 |
| 20260506204940 | 59 | 166 | 0.0 | 4.0 | 0.00 | 0.00 | 0.00 | 99 | 1000.7 |
| 20260506204438 | 59 | 235 | 1.0 | 1.0 | 0.00 | 0.00 | 0.00 | 99 | 1000.7 |
| 20260506203935 | 58 | 248 | 5.0 | 8.0 | 0.00 | 0.00 | 0.00 | 99 | 1001.1 |
| 20260506203432 | 58 | 146 | 1.0 | 3.0 | 0.00 | 0.00 | 0.00 | 99 | 1001.1 |
| 20260506202929 | 59 | 154 | 1.0 | 2.0 | 0.00 | 0.00 | 0.00 | 99 | 1001.1 |
| 20260506202427 | 58 | 139 | 1.0 | 2.0 | 0.00 | 0.00 | 0.00 | 99 | 1001.1 |
| 20260506201923 | 58 | 274 | 1.0 | 4.0 | 0.00 | 0.00 | 0.00 | 99 | 1001.1 |
| 20260506201421 | 59 | 79 | 1.0 | 3.0 | 0.00 | 0.00 | 0.00 | 99 | 1001.1 |
| 20260506200917 | 59 | 179 | 1.0 | 4.0 | 0.00 | 0.00 | 0.00 | 99 | 1001.4 |
| 20260506200413 | 58 | 172 | 1.0 | 3.0 | 0.00 | 0.00 | 0.00 | 99 | 1001.4 |
| 20260506195909 | 58 | 145 | 1.0 | 2.0 | 0.00 | 0.00 | 0.00 | 99 | 1001.1 |
| 20260506195407 | 59 | 134 | 3.0 | 4.0 | 0.00 | 0.00 | 0.00 | 99 | 1001.4 |
| 20260506194903 | 59 | 151 | 0.0 | 3.0 | 0.00 | 0.00 | 0.00 | 99 | 1001.4 |
| 20260506194400 | 59 | 172 | 1.0 | 3.0 | 0.00 | 0.00 | 0.00 | 99 | 1001.4 |
| 20260506193857 | 59 | 158 | 0.0 | 2.0 | 0.00 | 0.00 | 0.00 | 99 | 1001.7 |
| 20260506193354 | 58 | 205 | 1.0 | 4.0 | 0.00 | 0.00 | 0.00 | 99 | 1001.4 |
| 20260506192851 | 58 | 166 | 0.0 | 3.0 | 0.00 | 0.00 | 0.00 | 99 | 1001.7 |
| 20260506192348 | 58 | 137 | 2.0 | 3.0 | 0.00 | 0.00 | 0.00 | 98 | 1001.7 |
| 20260506191845 | 59 | 179 | 1.0 | 2.0 | 0.00 | 0.00 | 0.00 | 98 | 1001.7 |
| 20260506191341 | 58 | 150 | 1.0 | 3.0 | 0.00 | 0.00 | 0.00 | 98 | 1001.7 |
| 20260506190838 | 58 | 164 | 2.0 | 3.0 | 0.00 | 0.00 | 0.00 | 98 | 1001.7 |
| 20260506190334 | 59 | 134 | 0.0 | 1.0 | 0.00 | 0.00 | 0.00 | 98 | 1001.7 |
| 20260506185831 | 59 | 152 | 1.0 | 2.0 | 0.00 | 0.00 | 0.00 | 98 | 1001.7 |
| 20260506185328 | 58 | 159 | 3.0 | 6.0 | 0.00 | 0.00 | 0.00 | 98 | 1001.7 |
| 20260506184825 | 58 | 174 | 1.0 | 2.0 | 0.00 | 0.00 | 0.00 | 98 | 1001.7 |
| 20260506184322 | 58 | 171 | 1.0 | 3.0 | 0.00 | 0.00 | 0.00 | 98 | 1001.7 |
| 20260506183820 | 58 | 216 | 1.0 | 2.0 | 0.00 | 0.00 | 0.00 | 98 | 1002.1 |
| 20260506183315 | 58 | 218 | 2.0 | 2.0 | 0.00 | 0.00 | 0.00 | 98 | 1002.1 |
| 20260506182812 | 58 | 203 | 2.0 | 3.0 | 0.00 | 0.00 | 0.00 | 98 | 1002.1 |
| 20260506182309 | 58 | 156 | 2.0 | 3.0 | 0.00 | 0.00 | 0.00 | 98 | 1002.1 |
| 20260506181807 | 58 | 142 | 4.0 | 6.0 | 0.00 | 0.00 | 0.00 | 98 | 1002.1 |
| 20260506181304 | 58 | 159 | 2.0 | 3.0 | 0.00 | 0.00 | 0.00 | 98 | 1002.5 |
| 20260506180802 | 58 | 161 | 4.0 | 4.0 | 0.00 | 0.00 | 0.00 | 98 | 1002.9 |
| 20260506180257 | 58 | 176 | 0.0 | 3.0 | 0.00 | 0.00 | 0.00 | 98 | 1002.5 |
| 20260506175754 | 58 | 166 | 2.0 | 2.0 | 0.00 | 0.00 | 0.00 | 98 | 1002.9 |
| 20260506175251 | 58 | 170 | 0.0 | 1.0 | 0.00 | 0.00 | 0.00 | 98 | 1002.5 |
| 20260506174748 | 58 | 149 | 1.0 | 6.0 | 0.00 | 0.00 | 0.00 | 97 | 1002.5 |
| 20260506174245 | 58 | 156 | 2.0 | 2.0 | 0.00 | 0.00 | 0.00 | 97 | 1002.5 |
| 20260506173743 | 58 | 171 | 4.0 | 4.0 | 0.00 | 0.00 | 0.00 | 97 | 1002.1 |
| 20260506173240 | 58 | 133 | 2.0 | 3.0 | 0.00 | 0.00 | 0.00 | 97 | 1002.5 |
| 20260506172736 | 58 | 137 | 2.0 | 4.0 | 0.00 | 0.00 | 0.00 | 96 | 1002.5 |
| 20260506172233 | 59 | 191 | 2.0 | 7.0 | 0.00 | 0.00 | 0.00 | 96 | 1002.5 |
| 20260506171731 | 59 | 152 | 1.0 | 2.0 | 0.00 | 0.00 | 0.00 | 96 | 1002.5 |
| 20260506171228 | 59 | 196 | 3.0 | 4.0 | 0.00 | 0.00 | 0.00 | 94 | 1002.9 |
| 20260506170725 | 60 | 146 | 2.0 | 3.0 | 0.00 | 0.00 | 0.00 | 92 | 1003.2 |
| 20260506170222 | 60 | 154 | 2.0 | 2.0 | 0.00 | 0.00 | 0.00 | 90 | 1002.9 |
| 20260506165720 | 61 | 170 | 5.0 | 6.0 | 0.00 | 0.00 | 0.00 | 88 | 1003.2 |
| 20260506165217 | 61 | 145 | 2.0 | 6.0 | 0.00 | 0.00 | 0.00 | 87 | 1003.5 |
| 20260506164714 | 62 | 187 | 2.0 | 6.0 | 0.00 | 0.00 | 0.00 | 85 | 1003.9 |
| 20260506164211 | 62 | 158 | 3.0 | 3.0 | 0.00 | 0.00 | 0.00 | 84 | 1003.9 |
| 20260506163708 | 62 | 167 | 0.0 | 3.0 | 0.00 | 0.00 | 0.00 | 84 | 1003.5 |
| 20260506163203 | 62 | 161 | 1.0 | 3.0 | 0.00 | 0.00 | 0.00 | 84 | 1003.5 |
| 20260506162659 | 63 | 154 | 3.0 | 4.0 | 0.00 | 0.00 | 0.00 | 83 | 1003.5 |
| 20260506162157 | 64 | 224 | 2.0 | 4.0 | 0.00 | 0.00 | 0.00 | 82 | 1003.5 |
| 20260506161654 | 64 | 138 | 1.0 | 3.0 | 0.00 | 0.00 | 0.00 | 82 | 1003.5 |
| 20260506161150 | 64 | 0 | 2.0 | 4.0 | 0.00 | 0.00 | 0.00 | 82 | 1003.5 |
| 20260506160648 | 64 | 141 | 0.0 | 2.0 | 0.00 | 0.00 | 0.00 | 81 | 1003.5 |
| 20260506160145 | 64 | 181 | 0.0 | 4.0 | 0.00 | 0.00 | 0.00 | 81 | 1003.5 |
| 20260506155643 | 64 | 159 | 2.0 | 3.0 | 0.00 | 0.00 | 0.00 | 79 | 1003.9 |
| 20260506155140 | 65 | 173 | 1.0 | 4.0 | 0.00 | 0.00 | 0.00 | 80 | 1003.9 |
| 20260506153242 | 65 | 169 | 2.0 | 2.0 | 0.00 | 0.00 | 0.00 | 79 | 1003.9 |
| 20260506152739 | 65 | 260 | 1.0 | 4.0 | 0.00 | 0.00 | 0.00 | 79 | 1003.9 |
| 20260506152236 | 66 | 173 | 3.0 | 4.0 | 0.00 | 0.00 | 0.00 | 78 | 1003.9 |
| 20260506151735 | 66 | 221 | 4.0 | 6.0 | 0.00 | 0.00 | 0.00 | 77 | 1003.9 |
| 20260506151231 | 65 | 154 | 0.0 | 2.0 | 0.00 | 0.00 | 0.00 | 79 | 1003.9 |
| 20260506150728 | 64 | 159 | 2.0 | 3.0 | 0.00 | 0.00 | 0.00 | 80 | 1003.9 |
| 20260506150225 | 65 | 127 | 3.0 | 4.0 | 0.00 | 0.00 | 0.00 | 79 | 1003.9 |
| 20260506145722 | 64 | 145 | 2.0 | 3.0 | 0.00 | 0.00 | 0.00 | 80 | 1003.9 |
| 20260506145219 | 64 | 203 | 3.0 | 3.0 | 0.00 | 0.00 | 0.00 | 80 | 1003.9 |
| 20260506144716 | 64 | 136 | 2.0 | 4.0 | 0.00 | 0.00 | 0.00 | 80 | 1003.9 |
| 20260506144213 | 64 | 194 | 2.0 | 4.0 | 0.00 | 0.00 | 0.00 | 80 | 1003.9 |
| 20260506143710 | 64 | 148 | 4.0 | 4.0 | 0.00 | 0.00 | 0.00 | 79 | 1003.9 |
| 20260506143208 | 64 | 188 | 2.0 | 6.0 | 0.00 | 0.00 | 0.00 | 80 | 1003.9 |
| 20260506142707 | 64 | 182 | 3.0 | 6.0 | 0.00 | 0.00 | 0.00 | 80 | 1004.2 |
| 20260506142204 | 64 | 272 | 3.0 | 6.0 | 0.00 | 0.00 | 0.00 | 80 | 1003.9 |
| 20260506141702 | 64 | 164 | 1.0 | 6.0 | 0.00 | 0.00 | 0.00 | 80 | 1003.9 |
| 20260506141200 | 64 | 151 | 0.0 | 4.0 | 0.00 | 0.00 | 0.00 | 80 | 1004.2 |
| 20260506140657 | 65 | 166 | 0.0 | 7.0 | 0.00 | 0.00 | 0.00 | 79 | 1004.2 |
| 20260506140154 | 64 | 225 | 3.0 | 4.0 | 0.00 | 0.00 | 0.00 | 79 | 1004.2 |
| 20260506135651 | 64 | 157 | 2.0 | 6.0 | 0.00 | 0.00 | 0.00 | 80 | 1003.9 |
| 20260506135147 | 64 | 192 | 4.0 | 6.0 | 0.00 | 0.00 | 0.00 | 80 | 1003.9 |
| 20260506134644 | 64 | 118 | 4.0 | 8.0 | 0.00 | 0.00 | 0.00 | 79 | 1004.2 |
| 20260506134140 | 64 | 138 | 1.0 | 8.0 | 0.00 | 0.00 | 0.00 | 81 | 1004.2 |
| 20260506133637 | 64 | 166 | 0.0 | 3.0 | 0.00 | 0.00 | 0.00 | 82 | 1003.9 |
| 20260506133134 | 63 | 106 | 3.0 | 7.0 | 0.00 | 0.00 | 0.00 | 82 | 1003.9 |
| 20260506132632 | 63 | 149 | 2.0 | 3.0 | 0.00 | 0.00 | 0.00 | 83 | 1004.2 |
| 20260506132128 | 62 | 167 | 1.0 | 2.0 | 0.00 | 0.00 | 0.00 | 85 | 1003.9 |
| 20260506131626 | 61 | 191 | 1.0 | 3.0 | 0.00 | 0.00 | 0.00 | 86 | 1003.9 |
| 20260506131121 | 61 | 170 | 3.0 | 4.0 | 0.00 | 0.00 | 0.00 | 86 | 1003.9 |
| 20260506130619 | 61 | 167 | 2.0 | 3.0 | 0.00 | 0.00 | 0.00 | 86 | 1003.9 |
| 20260506130116 | 61 | 167 | 1.0 | 2.0 | 0.00 | 0.00 | 0.00 | 86 | 1003.9 |
| 20260506125614 | 61 | 143 | 2.0 | 6.0 | 0.00 | 0.00 | 0.00 | 87 | 1003.9 |
| 20260506125112 | 61 | 113 | 1.0 | 2.0 | 0.00 | 0.00 | 0.00 | 87 | 1003.9 |
| 20260506124609 | 61 | 175 | 2.0 | 4.0 | 0.00 | 0.00 | 0.00 | 87 | 1003.9 |
| 20260506124107 | 61 | 165 | 0.0 | 3.0 | 0.00 | 0.00 | 0.00 | 87 | 1004.2 |
| 20260506123604 | 60 | 107 | 3.0 | 6.0 | 0.00 | 0.00 | 0.00 | 87 | 1004.5 |
| 20260506123103 | 60 | 146 | 0.0 | 3.0 | 0.00 | 0.00 | 0.00 | 87 | 1004.2 |
| 20260506122559 | 60 | 163 | 3.0 | 6.0 | 0.00 | 0.00 | 0.00 | 87 | 1004.2 |
| 20260506122057 | 60 | 167 | 2.0 | 7.0 | 0.00 | 0.00 | 0.00 | 87 | 1004.2 |
| 20260506121554 | 60 | 163 | 1.0 | 3.0 | 0.00 | 0.00 | 0.00 | 88 | 1004.5 |
| 20260506121050 | 60 | 214 | 1.0 | 6.0 | 0.00 | 0.00 | 0.00 | 89 | 1004.5 |
| 20260506120549 | 59 | 164 | 0.0 | 3.0 | 0.00 | 0.00 | 0.00 | 89 | 1004.5 |
| 20260506120045 | 59 | 165 | 2.0 | 6.0 | 0.00 | 0.00 | 0.00 | 90 | 1004.5 |
| 20260506115544 | 59 | 117 | 2.0 | 4.0 | 0.00 | 0.00 | 0.00 | 91 | 1004.5 |
| 20260506115042 | 58 | 127 | 1.0 | 6.0 | 0.00 | 0.00 | 0.00 | 91 | 1004.2 |
| 20260506114539 | 58 | 172 | 0.0 | 7.0 | 0.00 | 0.00 | 0.00 | 92 | 1004.5 |
| 20260506114037 | 58 | 222 | 1.0 | 3.0 | 0.00 | 0.00 | 0.00 | 92 | 1004.2 |
| 20260506113535 | 57 | 167 | 1.0 | 6.0 | 0.00 | 0.00 | 0.00 | 93 | 1004.2 |
| 20260506113032 | 57 | 165 | 0.0 | 6.0 | 0.00 | 0.00 | 0.00 | 94 | 1004.2 |
| 20260506112528 | 57 | 161 | 1.0 | 4.0 | 0.00 | 0.00 | 0.00 | 94 | 1004.2 |
| 20260506112026 | 57 | 156 | 2.0 | 2.0 | 0.00 | 0.00 | 0.00 | 95 | 1004.2 |
| 20260506111524 | 56 | 243 | 2.0 | 3.0 | 0.00 | 0.00 | 0.00 | 95 | 1004.5 |
| 20260506111021 | 56 | 170 | 3.0 | 4.0 | 0.00 | 0.00 | 0.00 | 96 | 1004.5 |
| 20260506110518 | 55 | 162 | 1.0 | 3.0 | 0.00 | 0.00 | 0.00 | 97 | 1004.2 |
| 20260506110015 | 55 | 169 | 1.0 | 2.0 | 0.00 | 0.00 | 0.00 | 97 | 1004.5 |
| 20260506105511 | 55 | 174 | 0.0 | 3.0 | 0.00 | 0.00 | 0.00 | 98 | 1004.5 |
| 20260506105009 | 54 | 190 | 0.0 | 2.0 | 0.00 | 0.00 | 0.00 | 98 | 1004.5 |
| 20260506104507 | 54 | 164 | 1.0 | 4.0 | 0.00 | 0.00 | 0.00 | 98 | 1004.5 |
| 20260506104005 | 54 | 156 | 2.0 | 3.0 | 0.00 | 0.00 | 0.00 | 98 | 1004.5 |
| 20260506103501 | 54 | 99 | 3.0 | 6.0 | 0.00 | 0.00 | 0.00 | 98 | 1004.2 |
| 20260506102958 | 54 | 161 | 1.0 | 2.0 | 0.00 | 0.00 | 0.00 | 99 | 1004.2 |
| 20260506102456 | 54 | 163 | 2.0 | 2.0 | 0.00 | 0.00 | 0.00 | 99 | 1004.2 |
| 20260506101953 | 54 | 120 | 2.0 | 3.0 | 0.00 | 0.00 | 0.00 | 99 | 1004.2 |
| 20260506101449 | 54 | 137 | 1.0 | 3.0 | 0.00 | 0.00 | 0.00 | 99 | 1004.2 |
| 20260506100947 | 54 | 159 | 0.0 | 2.0 | 0.00 | 0.00 | 0.00 | 98 | 1004.2 |
| 20260506100446 | 54 | 174 | 1.0 | 3.0 | 0.00 | 0.00 | 0.00 | 98 | 1004.5 |
| 20260506095943 | 54 | 186 | 2.0 | 3.0 | 0.00 | 0.00 | 0.00 | 98 | 1004.2 |
| 20260506095442 | 54 | 162 | 1.0 | 3.0 | 0.00 | 0.00 | 0.00 | 98 | 1004.2 |
| 20260506094937 | 54 | 158 | 1.0 | 2.0 | 0.00 | 0.00 | 0.00 | 98 | 1004.2 |
| 20260506094436 | 54 | 158 | 1.0 | 3.0 | 0.00 | 0.00 | 0.00 | 97 | 1003.9 |
| 20260506093933 | 54 | 164 | 0.0 | 1.0 | 0.00 | 0.00 | 0.00 | 97 | 1004.2 |
| 20260506093431 | 54 | 147 | 1.0 | 2.0 | 0.00 | 0.00 | 0.00 | 97 | 1003.9 |
| 20260506092928 | 54 | 165 | 1.0 | 2.0 | 0.00 | 0.00 | 0.00 | 97 | 1004.2 |
| 20260506092426 | 55 | 154 | 1.0 | 4.0 | 0.00 | 0.00 | 0.00 | 97 | 1004.2 |
| 20260506091922 | 55 | 169 | 1.0 | 2.0 | 0.00 | 0.00 | 0.00 | 96 | 1004.2 |
| 20260506091421 | 55 | 145 | 2.0 | 3.0 | 0.00 | 0.00 | 0.00 | 96 | 1003.9 |
| 20260506090917 | 55 | 122 | 2.0 | 4.0 | 0.00 | 0.00 | 0.00 | 96 | 1003.9 |
| 20260506090415 | 55 | 156 | 1.0 | 3.0 | 0.00 | 0.00 | 0.00 | 96 | 1004.2 |
| 20260506085912 | 55 | 158 | 1.0 | 2.0 | 0.00 | 0.00 | 0.00 | 95 | 1004.2 |
| 20260506085409 | 55 | 200 | 2.0 | 3.0 | 0.00 | 0.00 | 0.00 | 95 | 1004.2 |
| 20260506084905 | 55 | 158 | 1.0 | 3.0 | 0.00 | 0.00 | 0.00 | 95 | 1004.5 |
| 20260506084402 | 55 | 148 | 2.0 | 2.0 | 0.00 | 0.00 | 0.00 | 95 | 1004.5 |
| 20260506083858 | 55 | 204 | 3.0 | 4.0 | 0.00 | 0.00 | 0.00 | 95 | 1004.5 |
| 20260506083356 | 55 | 144 | 2.0 | 4.0 | 0.00 | 0.00 | 0.00 | 94 | 1004.2 |
| 20260506082853 | 55 | 137 | 2.0 | 6.0 | 0.00 | 0.00 | 0.00 | 94 | 1004.5 |
| 20260506082349 | 55 | 144 | 2.0 | 6.0 | 0.00 | 0.00 | 0.00 | 94 | 1004.5 |
| 20260506081845 | 55 | 211 | 0.0 | 4.0 | 0.00 | 0.00 | 0.00 | 93 | 1004.5 |
| 20260506081344 | 55 | 177 | 1.0 | 6.0 | 0.00 | 0.00 | 0.00 | 93 | 1004.5 |
| 20260506080841 | 55 | 176 | 3.0 | 6.0 | 0.00 | 0.00 | 0.00 | 93 | 1004.5 |
| 20260506080337 | 55 | 190 | 3.0 | 6.0 | 0.00 | 0.00 | 0.00 | 93 | 1004.5 |
| 20260506073322 | 56 | 187 | 2.0 | 2.0 | 0.00 | 0.00 | 0.00 | 92 | 1004.5 |
| 20260506072818 | 56 | 146 | 0.0 | 3.0 | 0.00 | 0.00 | 0.00 | 92 | 1004.5 |
| 20260506072316 | 56 | 240 | 2.0 | 3.0 | 0.00 | 0.00 | 0.00 | 92 | 1004.5 |
| 20260506071814 | 56 | 170 | 1.0 | 3.0 | 0.00 | 0.00 | 0.00 | 92 | 1004.5 |
| 20260506071312 | 56 | 307 | 2.0 | 2.0 | 0.00 | 0.00 | 0.00 | 92 | 1004.5 |
| 20260506070808 | 56 | 181 | 2.0 | 3.0 | 0.00 | 0.00 | 0.00 | 91 | 1004.5 |
| 20260506070305 | 56 | 134 | 2.0 | 6.0 | 0.00 | 0.00 | 0.00 | 91 | 1004.5 |
| 20260506062242 | 57 | 225 | 2.0 | 2.0 | 0.00 | 0.00 | 0.00 | 89 | 1004.5 |
| 20260506061738 | 58 | 161 | 1.0 | 3.0 | 0.00 | 0.00 | 0.00 | 88 | 1004.5 |
| 20260506061236 | 58 | 125 | 3.0 | 4.0 | 0.00 | 0.00 | 0.00 | 88 | 1004.5 |
| 20260506060734 | 58 | 164 | 1.0 | 2.0 | 0.00 | 0.00 | 0.00 | 87 | 1004.5 |
| 20260506060231 | 58 | 195 | 3.0 | 7.0 | 0.00 | 0.00 | 0.00 | 87 | 1004.5 |
| 20260506051203 | 59 | 225 | 2.0 | 3.0 | 0.00 | 0.00 | 0.00 | 84 | 1004.9 |
| 20260506050701 | 60 | 165 | 0.0 | 2.0 | 0.00 | 0.00 | 0.00 | 83 | 1004.9 |
| 20260506050158 | 60 | 256 | 3.0 | 3.0 | 0.00 | 0.00 | 0.00 | 82 | 1004.9 |
| 20260506044649 | 60 | 178 | 2.0 | 9.0 | 0.00 | 0.00 | 0.00 | 81 | 1004.9 |
| 20260506044145 | 60 | 161 | 3.0 | 3.0 | 0.00 | 0.00 | 0.00 | 81 | 1004.9 |
| 20260506043643 | 60 | 198 | 1.0 | 3.0 | 0.00 | 0.00 | 0.00 | 81 | 1004.9 |
| 20260506043141 | 59 | 200 | 2.0 | 2.0 | 0.00 | 0.00 | 0.00 | 81 | 1004.9 |
| 20260506042640 | 60 | 204 | 2.0 | 6.0 | 0.00 | 0.00 | 0.00 | 81 | 1004.9 |
| 20260506042137 | 60 | 141 | 2.0 | 2.0 | 0.00 | 0.00 | 0.00 | 80 | 1004.9 |
| 20260506041636 | 60 | 221 | 3.0 | 7.0 | 0.00 | 0.00 | 0.00 | 80 | 1004.9 |
| 20260506041132 | 60 | 219 | 1.0 | 6.0 | 0.00 | 0.00 | 0.00 | 79 | 1004.9 |
| 20260506040630 | 60 | 179 | 3.0 | 4.0 | 0.00 | 0.00 | 0.00 | 79 | 1004.9 |
| 20260506040126 | 60 | 167 | 2.0 | 3.0 | 0.00 | 0.00 | 0.00 | 79 | 1004.9 |
| 20260506035623 | 60 | 150 | 4.0 | 4.0 | 0.00 | 0.00 | 0.00 | 79 | 1005.2 |
| 20260506035120 | 60 | 148 | 4.0 | 4.0 | 0.00 | 0.00 | 0.00 | 79 | 1004.9 |
| 20260506034617 | 60 | 159 | 2.0 | 3.0 | 0.00 | 0.00 | 0.00 | 79 | 1004.9 |
| 20260506034114 | 60 | 197 | 3.0 | 6.0 | 0.00 | 0.00 | 0.00 | 78 | 1005.2 |
| 20260506033611 | 60 | 185 | 2.0 | 3.0 | 0.00 | 0.00 | 0.00 | 78 | 1005.2 |
| 20260506033108 | 60 | 159 | 2.0 | 3.0 | 0.00 | 0.00 | 0.00 | 78 | 1004.9 |
| 20260506032606 | 60 | 191 | 2.0 | 7.0 | 0.00 | 0.00 | 0.00 | 78 | 1004.9 |
| 20260506032102 | 61 | 155 | 2.0 | 4.0 | 0.00 | 0.00 | 0.00 | 77 | 1004.9 |
| 20260506031600 | 61 | 152 | 2.0 | 7.0 | 0.00 | 0.00 | 0.00 | 77 | 1004.9 |
| 20260506031056 | 61 | 115 | 4.0 | 4.0 | 0.00 | 0.00 | 0.00 | 77 | 1004.9 |
| 20260506030555 | 61 | 117 | 3.0 | 4.0 | 0.00 | 0.00 | 0.00 | 76 | 1004.9 |
| 20260506030052 | 61 | 162 | 3.0 | 4.0 | 0.00 | 0.00 | 0.00 | 76 | 1004.9 |
| 20260506025549 | 61 | 156 | 3.0 | 4.0 | 0.00 | 0.00 | 0.00 | 76 | 1004.9 |
| 20260506025044 | 61 | 214 | 2.0 | 6.0 | 0.00 | 0.00 | 0.00 | 76 | 1004.9 |
| 20260506024542 | 61 | 163 | 2.0 | 3.0 | 0.00 | 0.00 | 0.00 | 76 | 1004.9 |
| 20260506024038 | 61 | 244 | 2.0 | 3.0 | 0.00 | 0.00 | 0.00 | 76 | 1004.9 |
| 20260506023534 | 62 | 179 | 1.0 | 7.0 | 0.00 | 0.00 | 0.00 | 75 | 1004.9 |
| 20260506023032 | 62 | 172 | 1.0 | 4.0 | 0.00 | 0.00 | 0.00 | 75 | 1004.9 |
| 20260506022529 | 61 | 176 | 1.0 | 2.0 | 0.00 | 0.00 | 0.00 | 75 | 1004.9 |
| 20260506022027 | 62 | 166 | 2.0 | 6.0 | 0.00 | 0.00 | 0.00 | 75 | 1004.9 |
| 20260506021524 | 62 | 103 | 2.0 | 3.0 | 0.00 | 0.00 | 0.00 | 75 | 1005.2 |
| 20260506021021 | 62 | 171 | 1.0 | 2.0 | 0.00 | 0.00 | 0.00 | 74 | 1004.9 |
| 20260506020519 | 63 | 248 | 2.0 | 3.0 | 0.00 | 0.00 | 0.00 | 72 | 1004.9 |
| 20260506020016 | 63 | 153 | 2.0 | 6.0 | 0.00 | 0.00 | 0.00 | 72 | 1004.9 |
| 20260506015513 | 63 | 175 | 1.0 | 6.0 | 0.00 | 0.00 | 0.00 | 72 | 1004.9 |
| 20260506015010 | 63 | 177 | 2.0 | 3.0 | 0.00 | 0.00 | 0.00 | 71 | 1004.5 |
| 20260506014508 | 63 | 137 | 1.0 | 6.0 | 0.00 | 0.00 | 0.00 | 71 | 1004.5 |
| 20260506014003 | 63 | 173 | 1.0 | 9.0 | 0.00 | 0.00 | 0.00 | 70 | 1004.5 |
| 20260506013501 | 63 | 180 | 2.0 | 6.0 | 0.00 | 0.00 | 0.00 | 71 | 1004.5 |
| 20260506012957 | 64 | 166 | 2.0 | 4.0 | 0.00 | 0.00 | 0.00 | 69 | 1004.5 |
| 20260506012454 | 64 | 133 | 2.0 | 3.0 | 0.00 | 0.00 | 0.00 | 70 | 1004.5 |
| 20260506011951 | 64 | 150 | 1.0 | 2.0 | 0.00 | 0.00 | 0.00 | 70 | 1004.5 |
| 20260506011448 | 64 | 140 | 2.0 | 3.0 | 0.00 | 0.00 | 0.00 | 69 | 1004.2 |
| 20260506010945 | 64 | 205 | 1.0 | 4.0 | 0.00 | 0.00 | 0.00 | 69 | 1003.9 |
| 20260506010444 | 64 | 258 | 5.0 | 7.0 | 0.00 | 0.00 | 0.00 | 68 | 1004.2 |
| 20260506005939 | 64 | 161 | 4.0 | 6.0 | 0.00 | 0.00 | 0.00 | 69 | 1004.2 |
| 20260506005437 | 64 | 158 | 1.0 | 2.0 | 0.00 | 0.00 | 0.00 | 68 | 1004.2 |
| 20260506004932 | 64 | 146 | 4.0 | 6.0 | 0.00 | 0.00 | 0.00 | 68 | 1003.9 |
| 20260506004431 | 64 | 162 | 2.0 | 3.0 | 0.00 | 0.00 | 0.00 | 67 | 1003.9 |
| 20260506003926 | 64 | 151 | 1.0 | 3.0 | 0.00 | 0.00 | 0.00 | 68 | 1003.9 |
| 20260506003423 | 65 | 187 | 1.0 | 2.0 | 0.00 | 0.00 | 0.00 | 68 | 1003.9 |
| 20260506002920 | 65 | 156 | 0.0 | 3.0 | 0.00 | 0.00 | 0.00 | 67 | 1003.9 |
| 20260506002416 | 65 | 158 | 3.0 | 6.0 | 0.00 | 0.00 | 0.00 | 67 | 1003.5 |
| 20260506001911 | 65 | 167 | 0.0 | 2.0 | 0.00 | 0.00 | 0.00 | 67 | 1003.9 |
| 20260506001409 | 65 | 203 | 2.0 | 4.0 | 0.00 | 0.00 | 0.00 | 66 | 1003.5 |
| 20260506000906 | 66 | 197 | 1.0 | 3.0 | 0.00 | 0.00 | 0.00 | 66 | 1003.5 |
| 20260506000403 | 66 | 186 | 1.0 | 2.0 | 0.00 | 0.00 | 0.00 | 66 | 1003.5 |
| 20260505235900 | 66 | 191 | 3.0 | 4.0 | 0.00 | 0.00 | 0.00 | 66 | 1003.5 |
| 20260505235358 | 66 | 160 | 1.0 | 2.0 | 0.00 | 0.00 | 0.00 | 66 | 1003.2 |
| 20260505234854 | 66 | 212 | 1.0 | 6.0 | 0.00 | 0.00 | 0.00 | 66 | 1003.5 |
| 20260505234352 | 66 | 232 | 1.0 | 1.0 | 0.00 | 0.00 | 0.00 | 66 | 1003.2 |
| 20260505233849 | 66 | 174 | 1.0 | 3.0 | 0.00 | 0.00 | 0.00 | 66 | 1003.2 |
| 20260505233347 | 66 | 157 | 2.0 | 4.0 | 0.00 | 0.00 | 0.00 | 65 | 1003.2 |
| 20260505232844 | 66 | 160 | 2.0 | 6.0 | 0.00 | 0.00 | 0.00 | 65 | 1003.2 |
| 20260505232342 | 67 | 185 | 0.0 | 3.0 | 0.00 | 0.00 | 0.00 | 64 | 1003.2 |
| 20260505231838 | 67 | 158 | 1.0 | 2.0 | 0.00 | 0.00 | 0.00 | 64 | 1003.2 |
| 20260505231336 | 67 | 180 | 1.0 | 2.0 | 0.00 | 0.00 | 0.00 | 64 | 1003.2 |
| 20260505230834 | 68 | 262 | 2.0 | 4.0 | 0.00 | 0.00 | 0.00 | 63 | 1002.9 |
| 20260505230330 | 68 | 207 | 5.0 | 7.0 | 0.00 | 0.00 | 0.00 | 62 | 1002.9 |
| 20260505225827 | 68 | 160 | 2.0 | 7.0 | 0.00 | 0.00 | 0.00 | 63 | 1002.9 |
| 20260505225324 | 68 | 206 | 1.0 | 7.0 | 0.00 | 0.00 | 0.00 | 62 | 1002.5 |
| 20260505224819 | 68 | 169 | 3.0 | 7.0 | 0.00 | 0.00 | 0.00 | 61 | 1002.9 |
| 20260505224318 | 68 | 164 | 4.0 | 7.0 | 0.00 | 0.00 | 0.00 | 61 | 1002.5 |
| 20260505223814 | 68 | 124 | 4.0 | 4.0 | 0.00 | 0.00 | 0.00 | 61 | 1002.9 |
| 20260505223312 | 69 | 264 | 4.0 | 6.0 | 0.00 | 0.00 | 0.00 | 60 | 1002.5 |
| 20260505222807 | 69 | 178 | 2.0 | 8.0 | 0.00 | 0.00 | 0.00 | 60 | 1002.9 |
| 20260505222305 | 70 | 190 | 2.0 | 7.0 | 0.00 | 0.00 | 0.00 | 60 | 1002.9 |
| 20260505221801 | 70 | 165 | 2.0 | 7.0 | 0.00 | 0.00 | 0.00 | 60 | 1002.9 |
| 20260505221257 | 70 | 167 | 4.0 | 6.0 | 0.00 | 0.00 | 0.00 | 59 | 1002.9 |
| 20260505220754 | 70 | 170 | 3.0 | 7.0 | 0.00 | 0.00 | 0.00 | 59 | 1002.9 |
| 20260505220251 | 71 | 173 | 3.0 | 6.0 | 0.00 | 0.00 | 0.00 | 59 | 1002.9 |
| 20260505215750 | 71 | 246 | 2.0 | 6.0 | 0.00 | 0.00 | 0.00 | 58 | 1002.5 |
| 20260505215247 | 71 | 236 | 4.0 | 8.0 | 0.00 | 0.00 | 0.00 | 58 | 1002.9 |
| 20260505214745 | 71 | 230 | 1.0 | 3.0 | 0.00 | 0.00 | 0.00 | 58 | 1002.5 |
| 20260505214242 | 72 | 137 | 6.0 | 8.0 | 0.00 | 0.00 | 0.00 | 57 | 1002.9 |
| 20260505213739 | 72 | 193 | 3.0 | 7.0 | 0.00 | 0.00 | 0.00 | 57 | 1002.5 |
| 20260505213236 | 72 | 150 | 2.0 | 6.0 | 0.00 | 0.00 | 0.00 | 58 | 1002.5 |
| 20260505212732 | 72 | 166 | 3.0 | 6.0 | 0.00 | 0.00 | 0.00 | 57 | 1002.5 |